Theta_e
339 334 334 333 332 333 335 336 336 336 335 335 336 336 337 338 338 334 334 335 335 336 337 338 337 335 338 341 341 337 335 336 338 339 341 339 338 336 336 340 333 340 341
338 336 339 336 341 340 337 338 337 338 339 339 338 337 339 339 338 339 337 334 333 333 334 334 337 338 337 341 339 336 338 339 338 338 338 339 338 337 338 340 340 333 338
340 342 343 342 342 343 342 340 341 339 338 338 337 338 339 339 339 338 339 339 338 339 339 339 337 338 338 336 338 335 336 338 338 337 337 339 339 340 340 339 337 338 332
341 345 344 342 340 343 342 340 338 336 339 338 337 336 337 338 336 333 341 341 341 342 341 339 337 338 337 337 337 339 341 340 337 334 336 337 338 340 340 337 335 338 336
344 342 343 344 344 343 342 339 334 338 339 338 337 336 335 337 339 339 342 342 343 342 340 338 336 337 339 339 338 339 338 339 337 334 334 335 334 337 338 337 329 334 333
341 340 345 345 344 343 343 335 336 337 338 337 337 336 336 337 337 340 342 342 341 340 336 335 333 333 331 330 333 340 340 344 341 338 334 334 332 334 337 338 334 328 333
341 341 345 344 344 342 339 335 337 340 341 339 337 340 337 335 338 335 342 337 337 335 331 335 335 334 334 334 340 340 339 338 340 337 335 333 334 333 335 337 337 337 331
340 341 346 342 342 340 337 336 337 342 341 338 336 339 337 336 339 334 339 336 334 334 335 337 339 340 340 339 340 337 336 341 337 337 337 337 333 332 334 335 333 334 339
340 342 338 336 336 340 336 337 337 337 336 337 337 341 335 335 337 336 336 336 333 332 335 337 339 338 341 341 341 339 337 335 336 340 340 336 335 332 333 339 340 335 334
341 335 333 334 336 336 337 336 338 337 337 335 338 339 340 335 333 334 333 333 331 333 336 339 340 340 340 338 337 334 336 334 336 338 338 339 337 336 336 336 335 331 330
336 335 335 334 333 334 338 336 338 338 337 338 337 338 335 332 330 330 332 334 333 336 337 339 340 341 335 334 335 336 339 338 337 337 338 338 337 337 336 339 339 336 338
339 336 335 334 335 335 337 335 339 338 337 338 337 332 328 326 327 326 329 330 331 334 336 338 335 336 338 336 337 336 338 339 336 337 338 339 338 339 338 342 341 339 339
343 336 336 339 339 339 339 340 341 341 338 338 334 331 331 333 323 323 324 326 330 334 337 340 341 341 341 341 342 340 340 340 340 340 339 340 339 338 338 340 340 340 340
346 345 338 338 340 340 340 340 341 341 337 338 337 340 338 338 330 329 332 335 337 341 343 338 342 344 344 344 343 342 342 341 341 340 338 340 340 339 338 338 339 339 339
346 345 343 340 340 340 340 341 340 341 338 339 340 344 343 343 342 342 343 345 346 346 346 344 346 345 344 342 344 343 344 343 341 339 343 343 341 340 340 339 339 339 339
345 344 341 342 342 343 342 340 340 341 338 342 340 342 343 343 343 343 343 345 346 346 345 345 346 346 337 341 344 344 343 344 344 343 343 339 343 341 341 341 341 341 342
345 344 343 344 345 345 342 341 340 341 338 342 340 341 345 345 344 344 344 345 346 346 344 344 345 343 345 344 343 344 343 345 346 344 343 343 343 342 342 343 342 342 342
345 346 344 345 346 341 342 340 341 342 338 340 341 342 343 344 344 345 344 342 345 346 346 346 346 342 344 343 343 344 344 344 344 341 345 342 346 343 342 344 343 344 343
344 346 345 345 343 344 342 343 345 343 340 338 341 342 344 343 343 343 344 343 344 346 345 347 345 345 344 347 345 344 345 345 345 345 345 345 345 345 342 343 342 343 342
344 346 346 344 344 345 343 344 344 344 342 337 338 340 341 344 343 341 343 344 344 345 344 342 345 345 346 345 345 344 345 344 346 345 344 346 344 343 344 346 344 343 342
344 345 345 344 345 345 345 344 345 345 344 340 337 337 341 344 345 340 342 345 344 344 340 341 344 342 347 344 346 343 344 344 344 345 345 345 343 341 340 341 345 345 345
344 344 344 344 345 344 345 343 343 344 343 337 337 337 337 343 344 340 341 346 344 343 336 341 344 340 347 346 345 344 343 344 346 346 345 345 343 341 344 340 340 342 345
345 344 344 344 345 345 345 344 344 340 339 343 342 339 342 343 343 340 341 345 345 342 341 345 342 341 341 346 346 345 346 344 344 346 345 345 345 345 344 343 344 341 338
345 345 345 345 345 345 345 344 344 337 342 346 346 346 341 341 342 344 340 343 341 343 341 344 345 342 342 345 346 347 347 343 342 342 343 345 343 342 344 344 345 345 338
346 346 346 345 345 345 345 345 344 340 340 344 338 341 344 343 342 344 340 341 340 344 343 342 344 340 345 344 344 344 346 344 342 342 343 344 343 342 342 344 345 347 345
345 346 346 345 345 345 344 344 344 344 340 342 340 342 343 343 344 344 343 340 337 339 342 340 343 346 343 341 340 337 338 337 344 344 342 343 344 341 342 344 344 346 346
Wind_Speed
26 23 22 21 20 19 19 17 16 16 16 15 13 14 14 14 15 15 15 15 13 12 9 10 5 4 6 8 6 4 1 3 2 4 4 3 4 5 7 9 11 12 13
28 26 22 19 18 17 16 17 16 15 14 12 13 15 15 15 14 14 14 13 12 10 8 5 3 5 9 8 5 1 3 4 5 4 2 3 5 7 8 9 11 13 13
29 26 22 19 17 15 15 14 14 13 12 12 13 15 14 14 14 14 14 14 11 9 8 7 7 11 12 7 4 4 5 7 9 7 4 5 7 9 8 10 10 13 14
31 27 23 20 15 17 16 12 13 13 13 13 13 13 12 13 13 14 14 13 11 10 11 10 10 10 9 8 8 8 7 7 3 5 6 9 9 11 11 9 10 11 12
29 26 21 21 20 16 16 15 12 12 12 12 12 12 12 14 13 14 14 13 13 13 13 12 12 10 9 8 9 8 2 1 2 1 10 9 8 7 9 8 9 11 12
26 22 22 22 21 19 15 13 13 12 10 10 11 12 13 14 14 13 13 13 14 14 15 14 12 10 7 7 8 9 4 3 2 2 9 12 7 9 8 8 8 11 12
23 23 21 21 19 17 17 15 14 10 9 9 10 12 13 13 14 12 13 13 14 15 15 13 12 10 6 5 3 1 2 3 3 3 2 12 10 9 10 9 10 11 12
23 23 20 19 17 17 16 15 11 9 9 10 11 13 13 12 13 12 14 15 14 14 13 12 10 8 5 2 3 5 7 2 2 3 4 7 8 8 8 8 9 10 11
23 21 19 18 18 17 16 14 9 9 9 11 11 13 13 12 13 12 14 14 13 13 12 11 7 4 2 3 2 5 7 3 5 1 1 3 5 6 8 8 8 9 11
23 20 19 19 19 17 16 12 9 9 10 12 12 13 13 12 12 12 13 13 14 13 10 8 5 3 4 4 6 7 5 2 4 2 1 2 2 5 9 9 10 10 11
23 21 21 19 16 17 15 11 10 9 11 11 12 13 13 11 12 12 13 12 13 11 9 6 4 6 8 4 5 6 5 3 3 1 3 2 4 6 7 9 10 8 8
24 23 21 18 16 17 15 12 11 10 11 12 12 13 14 13 13 14 12 11 11 10 8 7 6 8 8 12 8 5 8 4 2 5 7 9 9 8 8 8 9 7 7
23 24 23 20 16 14 13 11 10 9 10 13 12 13 14 14 13 13 12 11 9 7 6 4 3 3 3 7 7 2 4 1 1 4 7 8 10 10 8 8 7 8 7
23 21 23 20 17 16 12 11 10 11 11 12 15 14 13 12 13 13 13 11 9 6 3 3 3 5 9 6 5 2 4 5 6 3 2 3 10 12 9 8 8 9 9
20 20 20 22 21 18 15 13 13 12 13 12 15 12 12 10 11 10 9 8 6 3 1 2 3 4 8 9 8 6 5 7 8 7 4 1 5 9 8 8 9 9 8
21 18 19 20 21 18 15 15 14 13 14 14 16 14 15 12 8 5 5 9 5 1 3 2 2 5 8 7 4 3 2 5 7 3 5 6 6 5 5 6 9 9 9
22 19 21 19 18 18 17 14 16 16 15 13 15 18 14 10 9 7 6 5 4 2 3 2 4 5 6 7 5 1 1 3 3 3 2 2 6 7 5 3 7 8 7
22 21 19 19 19 17 17 16 16 16 16 14 16 19 17 14 10 6 3 2 1 3 2 4 2 2 6 6 4 4 5 2 6 3 3 2 2 5 5 3 5 5 6
22 22 21 20 21 19 17 15 15 17 16 17 15 20 16 15 12 8 4 6 5 3 2 1 2 2 3 5 4 3 3 4 5 1 5 2 3 7 7 7 5 4 2
22 20 22 20 20 20 19 16 16 18 15 19 19 19 17 12 13 12 8 7 7 5 4 4 4 5 4 4 4 3 3 2 5 4 7 2 2 2 3 7 7 3 2
26 25 24 23 22 22 21 19 20 22 16 21 23 20 19 16 13 14 12 9 9 7 7 3 4 3 2 2 2 6 8 4 4 3 4 3 6 7 6 3 6 4 4
29 28 27 25 22 21 21 18 17 17 18 18 23 28 20 21 16 15 15 11 8 8 6 5 5 3 1 2 3 7 2 4 8 6 6 2 7 5 8 3 5 6 10
33 30 29 27 24 21 21 18 18 17 16 16 16 22 24 23 20 15 17 13 10 7 7 4 4 4 3 0 3 3 1 3 4 3 4 7 8 9 8 7 7 6 6
34 31 29 28 26 23 23 21 21 20 25 20 19 19 19 20 22 17 19 17 13 10 8 8 9 4 4 2 2 3 2 2 3 3 4 7 6 6 7 7 8 6 5
35 32 29 28 27 26 24 23 23 21 26 20 19 21 20 18 21 18 18 19 16 12 9 9 9 9 7 5 5 5 5 5 5 5 5 9 6 7 6 7 6 7 7
36 36 33 31 27 27 26 24 25 24 27 26 23 24 20 19 22 19 16 17 19 18 15 13 13 11 8 7 8 9 9 9 8 7 10 11 11 9 8 7 7 4 7
Wind_Direction
165 161 155 152 148 146 141 140 134 132 128 127 126 128 134 141 146 149 157 158 149 155 157 158 170 154 171 166 165 176 211 179 197 196 184 195 170 146 142 145 159 151 142
160 158 153 152 150 144 144 142 141 136 133 132 127 128 134 136 132 148 159 161 169 174 181 191 212 167 167 163 172 209 125 122 144 148 162 185 162 161 145 163 166 174 162
161 156 155 155 151 149 152 147 141 138 134 130 129 126 131 131 134 139 143 149 152 153 160 159 139 124 140 153 145 117 110 120 122 107 129 163 168 156 174 167 176 174 180
161 156 151 147 153 155 152 155 145 138 134 130 127 128 129 133 129 133 134 135 141 138 134 137 125 125 134 146 124 130 135 128 173 268 194 172 184 180 190 192 192 184 176
159 156 156 157 155 159 159 153 148 139 137 134 132 129 133 132 128 130 127 124 126 123 123 126 124 129 139 120 116 121 113 329 249 198 175 173 181 178 197 196 185 183 181
161 162 160 162 161 162 159 154 147 142 143 139 136 135 134 135 134 134 126 122 117 119 117 119 123 123 124 141 137 127 145 61 22 149 181 171 185 179 188 190 172 172 174
168 166 168 164 167 161 160 157 149 148 149 147 141 140 132 141 133 136 127 124 123 124 121 122 126 130 148 149 150 194 137 108 82 62 107 189 187 187 182 190 191 188 189
175 173 168 167 170 164 163 159 150 155 156 148 144 140 142 145 134 135 128 123 122 128 127 132 136 141 144 105 49 8 357 324 143 93 89 180 189 189 187 199 204 202 207
178 176 173 172 172 165 167 163 149 145 151 147 148 141 144 145 137 133 131 125 133 135 136 134 132 106 70 40 16 347 355 7 146 251 126 125 174 184 191 193 209 218 221
182 178 178 179 171 170 170 165 150 143 147 145 147 144 147 146 136 137 133 132 137 141 141 136 115 41 22 1 29 14 16 325 252 172 276 191 203 206 193 186 209 223 231
181 178 181 183 176 171 173 171 159 154 150 148 149 147 148 144 136 135 137 140 145 148 152 134 100 39 36 9 341 325 296 269 191 280 255 249 242 230 209 195 207 211 229
183 183 185 186 186 178 176 180 168 169 162 157 156 149 145 142 135 136 147 146 155 160 162 136 87 66 48 37 34 14 20 28 303 281 259 259 254 237 232 228 217 212 226
190 186 188 195 193 188 180 177 175 173 169 164 153 149 147 141 136 139 141 146 154 158 137 111 47 11 14 325 353 289 329 275 205 234 250 258 256 239 237 233 220 219 232
195 200 198 199 195 191 185 177 187 179 175 167 163 153 152 134 127 127 127 131 138 142 121 75 36 356 338 307 323 291 214 183 187 112 94 249 250 241 238 250 241 225 227
206 205 212 214 206 197 199 194 188 184 174 170 171 174 175 150 131 135 142 150 146 158 256 50 20 329 332 307 324 326 299 213 196 217 180 82 246 230 226 244 252 242 230
211 209 205 198 193 201 199 193 192 190 184 178 181 168 161 152 149 158 165 154 140 104 24 350 343 337 35 8 19 302 313 232 214 160 243 242 203 202 202 232 244 247 244
204 202 202 204 198 205 203 208 199 192 188 176 183 179 171 168 175 149 146 155 88 41 24 346 340 52 6 16 16 63 355 206 214 200 283 236 206 213 214 241 248 249 246
206 201 202 210 209 207 203 201 192 193 189 188 188 186 180 182 179 156 148 220 115 103 102 44 56 56 355 6 335 281 314 145 195 317 249 216 15 227 214 231 255 238 229
207 206 202 207 204 198 192 191 188 190 199 199 197 194 196 190 190 184 191 208 212 174 136 35 24 19 318 324 326 357 358 19 129 107 27 124 223 201 209 219 236 243 251
214 213 209 210 209 202 201 202 202 203 201 203 204 204 205 202 198 205 205 211 228 227 234 338 273 320 358 6 340 342 306 100 122 79 14 73 39 318 286 232 213 242 266
219 216 214 215 211 207 207 211 211 210 220 220 216 211 207 205 208 210 208 205 223 226 226 287 232 277 284 313 357 91 89 114 168 351 70 61 353 10 351 346 256 244 260
219 220 215 218 215 217 212 215 219 227 230 234 228 214 220 209 209 218 209 212 228 238 217 248 265 232 228 57 44 127 98 51 56 81 83 5 5 309 354 28 332 300 261
217 218 217 217 214 218 212 215 217 214 216 198 191 192 202 206 207 209 210 215 226 235 213 235 299 233 235 336 35 52 54 29 29 61 43 353 318 324 297 306 316 354 274
218 218 219 220 216 215 212 214 214 212 192 198 195 191 193 195 204 208 212 219 229 249 240 254 271 256 230 251 262 333 359 342 359 323 3 15 357 356 345 312 284 289 325
217 217 221 223 222 218 211 214 215 213 205 198 197 189 190 198 201 209 214 221 229 239 242 254 256 250 249 258 259 259 260 303 294 317 318 342 336 1 359 358 287 256 286
218 219 219 222 222 221 214 214 215 216 211 211 206 199 199 198 203 209 214 230 237 242 249 250 247 246 255 265 278 277 272 277 273 297 306 319 329 323 351 350 340 274 243